sat.trackr.live / text

‹ back to catalog

STARLINK-4781

NORAD 53861 · 2022-114AV

PAYLOAD ACTIVE UNKNOWN

§ Identity

Operator
Country
US
Launch date
2022-09-19
Launch site
AFETR
Launch vehicle
Mass (kg)
RCS (m²)

Purposes: comms

External: N2YO · Heavens-Above · Gunter

§ Orbital elements

Epoch: 2026-05-25T03:46:15.797856Z

Period
95.44 min
Inclination
53.2131°
Eccentricity
0.0001221
Mean motion
15.08837665 rev/d
Perigee alt
538.9 km
Apogee alt
540.6 km
Semi-major
6,917.9 km
B*
1.5851e-5
RAAN
301.0048°
Arg perigee
95.3273°
Mean anomaly
264.7859°
Rev number
20,465

§ Raw data

STARLINK-47811 53861U 22114AV  26145.15712729 -.00000036  00000+0  15851-4 0  99982 53861  53.2131 301.0048 0001221  95.3273 264.7859 15.08837665204658

JSON: /api/v1/satellites/53861 · /tle

For live sub-satellite position, see the globe view (requires WebGL).

§ Visibility from observer

Set your observer location to see the next 7 days of passes ≥ 10°. The values pass through the URL so the page stays shareable.

No JS? Fill the form by hand. The geolocation button needs JavaScript.